Temperature
17 17 17 17 17 17 17 16 16 16 16 16 16 16 15 15 15 15 15 15 15 14 14 14 14 14 14 14 14 13 13 13 13 13 13 13 13 13
17 17 17 17 17 16 16 16 16 16 16 16 16 16 15 15 15 15 15 14 14 14 14 14 14 14 14 13 13 13 13 13 13 13 13 13 13 12
17 17 17 17 17 16 16 16 16 16 16 16 16 15 15 15 15 14 14 14 14 14 14 14 14 13 13 13 13 13 13 13 13 12 12 12 12 12
17 17 17 17 17 17 16 16 16 16 16 16 16 15 15 15 14 14 14 14 14 13 13 13 13 13 13 13 13 13 13 12 12 12 12 12 12 12
17 17 17 17 17 16 16 16 16 16 16 15 15 15 14 14 14 14 14 14 13 13 13 13 13 13 13 13 12 12 12 12 12 12 12 12 11 11
17 17 17 17 16 16 16 16 16 16 15 15 15 15 14 14 14 14 13 13 13 13 13 13 13 13 12 12 12 12 12 12 12 12 11 11 11 11
17 17 17 16 16 16 16 16 16 15 15 15 15 15 14 14 14 14 13 13 13 13 13 13 13 12 12 12 12 12 12 12 11 11 11 11 11 11
17 17 16 16 16 16 16 16 15 15 15 15 15 14 14 14 14 13 13 12 12 13 13 13 12 12 12 12 12 12 12 11 11 11 11 11 11 11
17 17 16 16 16 16 16 15 15 15 15 15 14 14 14 14 14 13 13 13 13 13 12 12 12 12 12 12 12 12 11 11 11 11 11 11 11 10
17 17 16 16 16 16 15 15 15 15 15 14 14 14 14 14 13 13 13 12 12 12 12 12 12 12 12 12 12 11 11 11 11 11 11 11 10 10
16 16 16 16 16 15 15 15 15 15 15 14 14 14 14 13 13 13 12 12 12 12 12 12 12 12 12 12 11 11 11 11 11 11 10 10 10 10
16 16 16 16 16 15 15 15 15 15 14 14 14 14 14 13 13 13 12 12 12 12 12 12 12 11 11 11 11 11 11 11 11 11 10 10 10 10
16 16 16 16 15 15 15 15 14 14 14 14 14 13 13 13 13 13 12 12 12 12 12 11 11 11 11 11 11 11 11 11 11 11 10 10 10 10
16 16 15 15 15 15 14 14 14 14 13 13 13 13 13 13 13 13 12 12 12 12 11 11 11 11 11 11 10 11 11 11 10 10 10 10 10 10
15 15 15 15 14 14 14 14 14 13 13 13 13 13 13 13 12 12 12 12 12 11 11 11 11 11 10 10 10 10 10 10 10 10 10 10 10 10
15 14 14 14 14 14 14 14 13 13 13 13 13 13 13 12 12 12 12 12 11 11 11 11 10 10 10 10 10 10 10 10 10 10 10 10 10 9
14 14 14 14 14 14 13 13 13 13 12 12 12 12 12 12 12 12 11 11 11 11 11 10 10 10 10 10 10 10 10 10 10 10 10 9 10 9
14 13 13 13 13 13 13 13 13 13 13 12 12 12 11 11 11 11 11 11 11 11 10 10 10 10 10 10 10 10 10 10 10 9 9 9 9 9
13 13 13 13 13 13 12 12 12 12 12 12 12 11 11 11 11 11 11 10 10 10 10 10 10 9 9 9 9 10 9 9 9 9 9 9 9 9
12 12 12 12 12 12 12 12 12 12 11 11 11 11 11 11 10 10 10 10 10 10 10 10 10 9 9 9 9 9 9 9 9 9 9 9 9 9
12 12 12 12 12 12 12 12 12 11 11 11 11 11 10 10 10 10 10 10 10 10 10 10 10 10 9 9 9 9 9 9 9 9 9 8 8 8
12 12 12 12 12 11 11 11 11 11 11 11 11 10 10 10 10 10 10 9 9 9 9 9 9 9 9 9 9 9 9 9 9 9 8 8 8 8
12 12 12 12 11 11 11 11 11 11 11 10 10 10 10 10 10 9 9 9 9 9 9 9 9 9 8 8 9 9 9 9 8 8 8 8 8 8
Wind_Speed
4 4 3 3 3 3 4 5 5 3 4 3 2 3 5 7 8 8 8 9 9 8 7 6 5 5 5 4 4 3 3 3 2 2 2 2 2 2
3 3 3 2 2 3 3 3 4 4 4 3 3 3 4 5 7 7 8 9 10 9 9 8 7 6 6 6 5 4 4 3 3 3 2 2 2 2
3 4 4 3 2 3 3 3 3 3 3 3 2 2 2 3 4 5 6 6 7 10 10 9 8 8 7 7 6 5 5 4 4 4 4 3 3 2
4 4 4 3 3 3 3 3 3 3 3 3 2 1 2 4 4 4 4 4 5 8 10 10 10 9 9 8 8 7 7 6 6 5 5 4 4 3
5 5 4 4 4 3 3 3 3 3 3 3 3 2 1 2 2 2 3 3 5 6 9 10 11 10 10 10 9 9 8 8 8 7 7 6 5 5
4 4 4 5 5 4 4 4 3 3 3 3 3 2 2 1 2 2 2 3 3 4 6 8 9 10 11 11 11 10 10 10 10 10 9 8 7 6
3 3 4 5 5 5 4 4 5 3 3 3 3 2 2 3 4 3 4 3 3 3 3 4 5 6 8 11 12 12 12 12 11 11 11 10 9 8
4 3 3 4 5 5 6 7 7 6 6 5 4 5 5 5 4 4 3 2 3 3 3 4 4 5 7 10 13 13 13 13 13 13 12 12 11 10
6 5 4 4 4 3 5 6 6 8 9 7 7 7 7 7 6 5 5 5 5 4 3 4 3 5 7 11 14 15 15 15 15 14 13 13 13 12
6 6 6 5 5 5 4 3 4 5 7 7 8 8 7 7 7 7 7 5 3 2 4 4 4 5 6 8 13 15 16 16 16 15 14 14 14 13
5 5 6 6 7 7 5 5 4 5 6 8 9 8 9 10 8 4 3 3 3 4 3 4 3 3 3 5 9 13 15 16 16 16 15 15 14 12
4 4 7 8 8 9 7 6 7 6 4 3 4 5 6 7 10 8 7 5 3 3 4 4 3 2 2 3 4 7 10 13 15 16 16 16 15 11
4 4 5 8 9 9 9 7 9 6 4 4 4 4 3 4 5 6 7 6 5 5 5 4 3 3 3 2 3 4 6 7 8 11 14 15 16 13
6 5 5 8 8 9 8 8 7 5 3 3 4 4 5 5 5 6 7 8 8 7 7 6 4 5 4 3 3 3 4 6 7 7 9 11 14 16
5 6 6 7 7 7 9 8 6 4 4 4 6 6 6 6 4 3 4 5 5 6 7 7 5 4 5 5 4 4 3 4 6 6 6 7 8 8
4 4 5 5 6 6 5 5 5 6 6 6 6 5 4 3 4 4 4 3 3 4 4 7 8 6 5 5 5 5 5 4 5 6 6 6 8 10
3 2 1 2 3 3 3 3 4 4 5 5 5 4 4 4 4 4 4 4 4 4 4 3 5 6 6 5 5 6 6 5 5 6 5 6 7 9
4 3 4 4 5 5 5 5 4 5 6 5 5 5 5 5 5 4 4 5 6 6 5 4 2 1 2 4 7 7 6 5 5 5 5 6 7 7
4 4 5 5 5 5 5 6 6 6 5 5 5 5 5 5 5 5 5 5 6 6 6 4 4 4 5 7 6 8 7 5 4 5 6 6 7 7
4 5 5 5 5 5 5 5 5 5 5 5 5 5 5 5 5 5 6 6 6 6 5 5 6 7 8 8 5 5 10 7 6 6 6 5 5 6
5 5 5 5 5 5 5 5 5 5 5 5 5 6 6 6 6 6 6 8 7 6 7 7 8 9 5 2 2 4 5 10 10 6 5 4 4 4
5 5 5 5 5 5 5 5 4 4 4 5 5 5 5 5 6 7 6 6 6 7 7 6 4 3 3 5 7 7 6 4 7 11 11 9 6 7
5 4 4 4 4 4 4 4 4 4 5 5 5 5 5 5 5 5 6 6 5 6 5 4 3 3 5 6 6 6 6 5 3 3 5 9 12 12
Wind_Direction
209 207 210 222 206 197 176 165 165 196 228 221 209 202 187 184 187 184 187 195 195 196 200 203 207 211 214 212 213 209 208 209 217 219 216 203 197 217
207 205 216 223 210 197 187 183 175 177 211 220 212 205 183 184 190 187 195 201 203 203 205 206 212 216 215 210 208 203 199 194 190 187 178 167 163 157
216 205 215 201 198 196 186 186 185 168 201 239 217 183 172 181 178 189 198 201 208 212 211 212 214 215 215 213 207 205 203 199 191 185 181 178 175 175
217 208 217 208 205 203 194 197 197 183 182 214 226 189 198 191 185 192 199 215 220 222 219 219 217 217 215 212 209 206 207 209 206 203 203 201 198 192
212 210 216 197 209 210 200 198 204 197 182 184 209 210 203 183 173 213 216 217 227 226 224 226 223 222 220 218 216 213 214 216 214 212 213 212 212 209
208 208 206 198 201 197 197 192 184 175 171 173 188 196 193 194 167 201 232 235 237 226 227 228 229 230 229 228 226 223 221 221 219 215 213 214 214 209
208 207 207 203 199 195 195 188 177 179 177 183 196 203 205 191 207 204 222 239 251 225 224 231 225 231 232 232 232 230 225 223 222 219 215 214 213 211
205 216 213 205 206 203 202 196 185 186 192 198 210 215 221 214 208 205 206 211 251 232 206 240 213 234 235 230 231 230 227 225 224 222 219 217 215 213
206 209 220 217 203 201 205 203 207 205 197 196 209 220 215 209 197 207 209 212 230 220 197 245 230 237 237 237 233 232 231 229 226 225 222 220 218 216
213 209 210 217 214 194 197 212 228 229 221 214 216 222 220 209 200 205 211 222 248 228 184 223 233 238 242 234 235 232 233 231 229 226 225 222 221 221
221 215 209 215 217 195 192 211 235 252 249 230 221 219 217 211 198 186 194 201 244 247 209 204 220 234 243 244 236 232 231 231 231 229 225 223 224 222
229 228 220 214 215 201 199 206 225 242 241 247 242 237 227 220 204 197 198 206 223 239 214 194 208 183 250 255 236 229 230 235 232 231 228 226 222 216
222 231 232 214 214 212 207 212 223 223 221 223 237 240 237 229 219 210 204 203 211 232 213 185 195 194 207 242 259 231 220 225 228 232 230 226 219 211
222 227 229 220 218 216 215 222 220 210 210 219 233 237 236 235 233 222 219 220 221 222 207 189 198 201 204 224 246 243 229 225 219 223 225 223 222 221
224 223 226 227 224 225 226 222 212 207 211 228 236 240 236 231 220 217 224 227 236 234 219 206 203 206 205 217 220 217 228 232 215 217 218 213 214 211
233 233 229 226 219 225 229 224 214 212 214 228 235 239 231 222 218 215 220 215 226 252 246 227 209 204 219 223 217 226 216 215 213 216 217 222 220 217
204 204 213 216 227 237 238 235 224 218 226 234 233 235 233 232 234 221 211 209 219 234 252 254 235 230 221 211 222 231 226 225 220 209 207 224 229 222
167 202 223 227 231 234 234 236 230 228 231 230 228 226 227 229 235 227 212 215 225 231 236 234 218 256 300 267 228 226 225 227 224 211 204 218 237 233
184 220 225 227 229 231 233 233 236 236 228 226 229 229 227 227 227 228 222 222 229 232 235 225 209 207 236 258 257 221 216 223 215 216 215 213 229 235
222 230 232 231 230 234 238 239 237 232 227 227 230 231 229 230 232 232 226 224 229 232 237 231 221 219 225 238 244 243 217 210 210 222 226 225 234 245
232 236 236 235 237 238 239 235 229 226 224 223 229 232 235 233 235 235 232 229 227 229 235 239 238 228 225 210 243 255 243 220 216 215 214 214 226 228
239 239 237 235 235 235 232 230 229 230 230 231 236 237 237 236 239 238 234 233 232 233 238 246 241 214 205 221 238 248 251 250 240 234 224 210 198 207
244 243 240 239 237 233 228 226 227 234 233 234 235 239 238 236 237 237 236 234 236 238 240 245 242 226 227 228 236 242 243 242 238 241 253 246 239 238
Height
1545 1545 1545 1545 1546 1546 1547 1547 1548 1547 1547 1548 1548 1549 1549 1549 1549 1549 1549 1549 1548 1548 1547 1547 1546 1545 1545 1544 1544 1544 1543 1543 1542 1542 1542 1541 1541 1541
1542 1543 1543 1543 1543 1543 1544 1545 1545 1546 1545 1545 1545 1546 1546 1546 1547 1547 1546 1546 1546 1546 1545 1545 1544 1543 1543 1542 1542 1542 1541 1541 1540 1540 1540 1539 1539 1539
1540 1540 1540 1540 1540 1540 1541 1542 1542 1543 1542 1542 1543 1543 1543 1544 1544 1544 1544 1543 1543 1543 1543 1542 1542 1542 1541 1540 1540 1540 1539 1539 1538 1538 1538 1537 1537 1537
1537 1537 1537 1537 1537 1538 1538 1538 1539 1540 1540 1539 1539 1540 1540 1541 1541 1541 1541 1540 1540 1540 1540 1540 1540 1539 1539 1538 1538 1537 1537 1536 1536 1536 1536 1535 1535 1535
1534 1534 1534 1535 1534 1535 1535 1535 1536 1536 1537 1536 1536 1536 1537 1537 1537 1537 1537 1537 1537 1537 1537 1537 1537 1536 1536 1536 1536 1535 1535 1534 1534 1533 1533 1533 1533 1533
1531 1531 1531 1531 1531 1532 1532 1532 1533 1533 1533 1533 1532 1532 1533 1533 1533 1533 1532 1533 1533 1533 1533 1533 1533 1533 1533 1533 1533 1533 1532 1532 1532 1531 1531 1531 1531 1531
1528 1528 1528 1528 1529 1529 1529 1529 1529 1530 1529 1529 1529 1529 1529 1529 1529 1529 1529 1529 1529 1530 1530 1530 1530 1530 1530 1530 1530 1530 1530 1529 1529 1529 1528 1528 1528 1528
1524 1524 1525 1525 1525 1525 1525 1526 1526 1526 1525 1525 1525 1525 1525 1525 1525 1525 1525 1525 1525 1526 1526 1526 1526 1526 1526 1526 1526 1526 1526 1526 1526 1526 1526 1526 1526 1526
1520 1520 1520 1520 1521 1521 1521 1521 1522 1522 1522 1522 1521 1520 1521 1521 1522 1522 1521 1521 1521 1522 1523 1522 1522 1522 1522 1522 1522 1523 1523 1523 1523 1523 1523 1523 1523 1523
1516 1516 1516 1516 1516 1517 1517 1517 1517 1517 1517 1517 1517 1517 1517 1518 1518 1518 1518 1518 1518 1518 1519 1518 1517 1518 1518 1518 1518 1519 1519 1519 1519 1519 1519 1520 1520 1520
1511 1512 1512 1512 1512 1513 1513 1513 1513 1513 1513 1513 1513 1513 1513 1513 1514 1514 1514 1514 1513 1513 1514 1514 1513 1513 1513 1513 1514 1514 1514 1515 1515 1515 1515 1516 1516 1516
1506 1507 1507 1507 1507 1508 1508 1508 1508 1508 1508 1508 1508 1508 1508 1508 1509 1509 1509 1509 1508 1508 1509 1509 1508 1509 1508 1508 1509 1509 1510 1510 1510 1511 1511 1512 1512 1512
1500 1501 1502 1502 1503 1503 1503 1503 1503 1503 1503 1503 1503 1503 1503 1503 1503 1503 1504 1504 1504 1503 1504 1504 1504 1504 1504 1503 1503 1504 1505 1505 1505 1506 1506 1507 1507 1508
1495 1496 1496 1497 1498 1498 1498 1498 1498 1498 1498 1497 1497 1497 1497 1497 1498 1498 1498 1499 1499 1499 1499 1500 1499 1499 1499 1498 1498 1498 1499 1499 1500 1500 1500 1501 1502 1502
1491 1491 1491 1492 1493 1493 1493 1493 1493 1493 1492 1492 1491 1492 1492 1493 1493 1493 1493 1493 1493 1493 1494 1494 1494 1494 1494 1493 1493 1493 1493 1493 1494 1494 1495 1495 1496 1496
1486 1486 1486 1486 1487 1487 1487 1487 1487 1487 1487 1486 1486 1487 1487 1487 1487 1487 1488 1488 1487 1487 1488 1489 1489 1489 1488 1488 1488 1487 1488 1488 1488 1489 1489 1489 1490 1491
1480 1480 1480 1481 1481 1481 1481 1481 1482 1481 1481 1481 1481 1481 1481 1481 1481 1482 1482 1482 1482 1481 1482 1483 1483 1483 1483 1483 1482 1482 1482 1482 1483 1483 1483 1483 1484 1484
1475 1474 1474 1475 1475 1475 1475 1475 1475 1475 1475 1475 1475 1476 1476 1476 1476 1476 1476 1477 1476 1476 1476 1477 1477 1477 1477 1476 1477 1476 1476 1476 1476 1477 1477 1477 1477 1478
1470 1469 1469 1469 1469 1469 1470 1470 1470 1470 1470 1470 1470 1470 1470 1470 1470 1471 1471 1471 1471 1471 1471 1471 1471 1471 1471 1469 1470 1471 1471 1470 1470 1470 1471 1471 1471 1472
1465 1465 1465 1465 1465 1465 1465 1465 1464 1464 1464 1464 1464 1464 1464 1464 1464 1465 1465 1465 1465 1465 1465 1465 1465 1465 1465 1464 1464 1464 1465 1464 1464 1464 1464 1464 1465 1466
1461 1460 1460 1460 1460 1460 1460 1459 1459 1459 1458 1458 1458 1458 1458 1458 1458 1459 1459 1459 1459 1459 1458 1458 1459 1460 1459 1460 1459 1458 1459 1459 1459 1459 1459 1459 1458 1459
1456 1456 1456 1456 1455 1455 1455 1454 1453 1453 1453 1452 1452 1452 1453 1453 1453 1453 1453 1453 1453 1453 1453 1453 1454 1454 1454 1453 1452 1452 1453 1453 1453 1454 1454 1454 1452 1452
1453 1452 1452 1451 1451 1450 1450 1449 1448 1448 1447 1447 1447 1447 1447 1447 1447 1447 1447 1447 1447 1447 1447 1447 1448 1448 1447 1447 1447 1447 1447 1447 1447 1447 1447 1447 1447 1448